Meath Environmental Platform

Observations for Trim Market St

Time AQI Temp °C Hum % Pres Pa CO μg/m³ H₂S μg/m³ NO μg/m³ NO₂ μg/m³ O₃ μg/m³ SO₂ μg/m³ PM1 μg/m³ PM2.5 μg/m³ PM10 μg/m³
Tuesday 18 August 2026
15:37 2 25.4 45 65,475 0 0 1.63 9.31 62.7 0 0 2.16 2.37
15:33 2 25.5 45 65,479 0 0 1.68 7.88 44.26 0 0 2.16 2.38
15:32 2 25.5 45 65,439 0 0 1.65 8.28 64.34 0 0 2.68 2.87
15:31 2 25.5 45 65,456 0 0 1.66 10.39 64.04 0 0 2.15 2.37
15:30 2 25.5 45 65,435 0 0 1.68 10.42 54.78 0 0 2.15 2.37
15:29 2 25.5 45 65,443 0 0 1.69 10.25 60.27 0 0 2.15 2.36
15:28 2 25.5 45 65,460 0 0 1.66 8.89 59.4 0 0 2.14 2.35
15:27 2 25.5 45 65,443 0 0 1.68 10.45 68.2 0 0 2.14 2.36
15:26 2 25.5 45 65,456 0 0 1.66 9.81 62.71 0 0 2.13 2.35
15:25 2 25.5 46 65,410 0 0 1.65 10.6 41.9 0 0 2.12 2.33
15:24 2 25.5 46 65,380 0 0 1.65 8.47 57.88 0 0 2.64 2.9
15:23 2 25.5 46 65,372 0 0 1.66 9.42 64.76 0 0 2.12 2.33
15:22 2 25.4 46 65,358 0 0 1.7 8.89 64.95 0 0 2.11 3.68
15:21 2 25.4 46 65,345 0 0 1.73 9.67 60.27 0 0 2.11 2.32
15:20 2 25.4 46 65,293 0 0 1.71 10.16 64.68 0 0 2.62 2.89
15:17 2 25.3 46 65,252 0 0 1.82 9.87 61.57 0 0 2.1 2.31
15:12 2 25.2 47 65,072 4.91 0 2.18 17.31 37.25 0 0 2.05 2.25
15:07 2 25.2 48 64,736 0 0 1.88 12.51 59.88 0 0 2.02 2.22
15:06 2 25.2 48 64,728 0 0 1.86 12.28 62.78 0 0 2.02 2.22
15:02 2 25.1 48 64,666 0 0 1.9 11.47 62.18 0 0 2.02 2.22